Time,TemperatureF,DewpointF,PressureIn,WindDirection,WindDirectionDegrees,WindSpeedMPH,WindSpeedGustMPH,Humidity,HourlyPrecipIn,Conditions,Clouds,dailyrainin,SoftwareType,DateUTC
2013-07-29 00:02:00,63.3,61.9,29.94,NW,315,2.0,5.0,95,0.00,,,0.00,meteohub,2013-07-29 07:02:00,
2013-07-29 00:07:00,63.3,61.5,29.94,NW,315,4.0,5.0,94,0.00,,,0.00,meteohub,2013-07-29 07:07:00,
2013-07-29 00:12:00,63.3,61.5,29.94,NW,315,4.0,6.0,94,0.00,,,0.00,meteohub,2013-07-29 07:12:00,
2013-07-29 00:17:00,63.3,61.5,29.94,NW,315,2.0,6.0,94,0.00,,,0.00,meteohub,2013-07-29 07:17:00,
2013-07-29 00:22:00,63.1,61.3,29.95,NW,315,2.0,5.0,94,0.00,,,0.00,meteohub,2013-07-29 07:22:00,
2013-07-29 00:27:00,63.1,61.3,29.95,South,180,2.0,5.0,94,0.00,,,0.00,meteohub,2013-07-29 07:27:00,
2013-07-29 00:32:00,63.1,61.3,29.95,West,270,2.0,4.0,94,0.00,,,0.00,meteohub,2013-07-29 07:32:00,
2013-07-29 00:37:00,63.1,61.3,29.94,West,270,1.0,4.0,94,0.00,,,0.00,meteohub,2013-07-29 07:37:00,
2013-07-29 00:42:00,63.1,61.3,29.94,West,270,1.0,4.0,94,0.00,,,0.00,meteohub,2013-07-29 07:42:00,
2013-07-29 00:47:00,63.1,61.3,29.94,West,270,2.0,3.0,94,0.00,,,0.00,meteohub,2013-07-29 07:47:00,
2013-07-29 00:52:00,63.1,61.3,29.94,South,180,2.0,4.0,94,0.00,,,0.00,meteohub,2013-07-29 07:52:00,
2013-07-29 00:57:00,63.1,61.2,29.94,South,180,1.0,4.0,93,0.00,,,0.00,meteohub,2013-07-29 07:57:00,
2013-07-29 01:02:00,63.3,61.3,29.94,West,270,4.0,4.0,93,0.00,,,0.00,meteohub,2013-07-29 08:02:00,
2013-07-29 01:07:00,63.1,61.2,29.94,West,270,3.0,4.0,93,0.00,,,0.00,meteohub,2013-07-29 08:07:00,
2013-07-29 01:12:00,63.1,61.2,29.94,West,270,1.0,4.0,93,0.00,,,0.00,meteohub,2013-07-29 08:12:00,
2013-07-29 01:17:00,63.3,61.3,29.94,West,270,2.0,4.0,93,0.00,,,0.00,meteohub,2013-07-29 08:17:00,
2013-07-29 01:22:00,63.3,61.0,29.94,West,270,3.0,4.0,92,0.00,,,0.00,meteohub,2013-07-29 08:22:00,
2013-07-29 01:27:00,63.3,61.0,29.94,West,270,2.0,4.0,92,0.00,,,0.00,meteohub,2013-07-29 08:27:00,
2013-07-29 01:32:00,63.3,61.0,29.94,West,270,4.0,4.0,92,0.00,,,0.00,meteohub,2013-07-29 08:32:00,
2013-07-29 01:37:00,63.3,60.6,29.94,West,270,2.0,5.0,91,0.00,,,0.00,meteohub,2013-07-29 08:37:00,
2013-07-29 01:42:00,63.3,60.6,29.94,West,270,3.0,5.0,91,0.00,,,0.00,meteohub,2013-07-29 08:42:00,
2013-07-29 01:47:00,63.3,60.6,29.94,West,270,3.0,4.0,91,0.00,,,0.00,meteohub,2013-07-29 08:47:00,
2013-07-29 01:52:00,63.3,60.3,29.94,West,270,2.0,4.0,90,0.00,,,0.00,meteohub,2013-07-29 08:52:00,
2013-07-29 01:57:00,63.3,60.3,29.94,West,270,2.0,4.0,90,0.00,,,0.00,meteohub,2013-07-29 08:57:00,
2013-07-29 02:02:00,63.5,60.4,29.94,West,270,2.0,4.0,90,0.00,,,0.00,meteohub,2013-07-29 09:02:00,
2013-07-29 02:07:00,63.3,60.3,29.93,West,270,0.0,3.0,90,0.00,,,0.00,meteohub,2013-07-29 09:07:00,
2013-07-29 02:12:00,63.3,60.3,29.94,West,270,2.0,3.0,90,0.00,,,0.00,meteohub,2013-07-29 09:12:00,
2013-07-29 02:17:00,63.5,60.4,29.94,West,270,0.0,2.0,90,0.00,,,0.00,meteohub,2013-07-29 09:17:00,
2013-07-29 02:22:00,63.3,60.3,29.94,West,270,0.0,2.0,90,0.00,,,0.00,meteohub,2013-07-29 09:22:00,
2013-07-29 02:27:00,63.3,60.3,29.94,West,270,0.0,2.0,90,0.00,,,0.00,meteohub,2013-07-29 09:27:00,
2013-07-29 02:33:00,63.3,60.3,29.93,West,270,0.0,2.0,90,0.00,,,0.00,meteohub,2013-07-29 09:33:00,
2013-07-29 02:37:00,63.3,60.3,29.93,West,270,0.0,2.0,90,0.00,,,0.00,meteohub,2013-07-29 09:37:00,
2013-07-29 02:43:00,63.3,60.3,29.93,West,270,0.0,0.0,90,0.00,,,0.00,meteohub,2013-07-29 09:43:00,
2013-07-29 02:48:00,63.3,60.3,29.93,West,270,2.0,2.0,90,0.00,,,0.00,meteohub,2013-07-29 09:48:00,
2013-07-29 02:53:00,63.5,60.4,29.93,West,270,2.0,3.0,90,0.00,,,0.00,meteohub,2013-07-29 09:53:00,
2013-07-29 02:58:00,63.5,60.4,29.94,West,270,1.0,3.0,90,0.00,,,0.00,meteohub,2013-07-29 09:58:00,
2013-07-29 03:03:00,63.5,60.4,29.94,West,270,2.0,3.0,90,0.00,,,0.00,meteohub,2013-07-29 10:03:00,
2013-07-29 03:09:00,63.5,60.4,29.93,West,270,0.0,3.0,90,0.00,,,0.00,meteohub,2013-07-29 10:09:00,
2013-07-29 03:14:00,63.7,60.6,29.93,West,270,2.0,2.0,90,0.00,,,0.00,meteohub,2013-07-29 10:14:00,
2013-07-29 03:19:00,63.7,60.6,29.93,West,270,2.0,2.0,90,0.00,,,0.00,meteohub,2013-07-29 10:19:00,
2013-07-29 03:24:00,63.7,60.6,29.94,West,270,2.0,2.0,90,0.00,,,0.00,meteohub,2013-07-29 10:24:00,
2013-07-29 03:29:00,63.7,60.6,29.94,West,270,2.0,4.0,90,0.00,,,0.00,meteohub,2013-07-29 10:29:00,
2013-07-29 03:35:00,63.7,60.4,29.94,West,270,0.0,4.0,89,0.00,,,0.00,meteohub,2013-07-29 10:35:00,
2013-07-29 03:41:00,63.7,60.4,29.94,West,270,0.0,4.0,89,0.00,,,0.00,meteohub,2013-07-29 10:41:00,
2013-07-29 03:46:00,63.7,60.4,29.94,West,270,0.0,2.0,89,0.00,,,0.00,meteohub,2013-07-29 10:46:00,
2013-07-29 03:51:00,63.9,60.6,29.94,West,270,0.0,1.0,89,0.00,,,0.00,meteohub,2013-07-29 10:51:00,
2013-07-29 03:56:00,63.9,60.6,29.94,West,270,2.0,3.0,89,0.00,,,0.00,meteohub,2013-07-29 10:56:00,
2013-07-29 04:01:00,63.9,60.6,29.94,West,270,2.0,3.0,89,0.00,,,0.00,meteohub,2013-07-29 11:01:00,
2013-07-29 04:06:00,64.0,60.8,29.94,West,270,2.0,3.0,89,0.00,,,0.00,meteohub,2013-07-29 11:06:00,
2013-07-29 04:11:00,64.0,60.8,29.94,West,270,2.0,3.0,89,0.00,,,0.00,meteohub,2013-07-29 11:11:00,
2013-07-29 04:16:00,64.0,60.8,29.94,West,270,3.0,3.0,89,0.00,,,0.00,meteohub,2013-07-29 11:16:00,
2013-07-29 04:22:00,64.0,60.8,29.94,West,270,2.0,4.0,89,0.00,,,0.00,meteohub,2013-07-29 11:22:00,
2013-07-29 04:27:00,64.0,60.4,29.94,West,270,2.0,4.0,88,0.00,,,0.00,meteohub,2013-07-29 11:27:00,
2013-07-29 04:32:00,64.0,60.1,29.94,West,270,4.0,4.0,87,0.00,,,0.00,meteohub,2013-07-29 11:32:00,
2013-07-29 04:37:00,64.0,60.1,29.95,West,270,2.0,4.0,87,0.00,,,0.00,meteohub,2013-07-29 11:37:00,
2013-07-29 04:42:00,64.0,60.1,29.95,WSW,248,3.0,4.0,87,0.00,,,0.00,meteohub,2013-07-29 11:42:00,
2013-07-29 04:47:00,64.0,59.7,29.95,West,270,3.0,4.0,86,0.00,,,0.00,meteohub,2013-07-29 11:47:00,
2013-07-29 04:52:00,64.0,59.7,29.95,West,270,2.0,4.0,86,0.00,,,0.00,meteohub,2013-07-29 11:52:00,
2013-07-29 04:58:00,64.0,59.7,29.95,West,270,3.0,4.0,86,0.00,,,0.00,meteohub,2013-07-29 11:58:00,
2013-07-29 05:03:00,64.0,59.7,29.95,West,270,2.0,4.0,86,0.00,,,0.00,meteohub,2013-07-29 12:03:00,
2013-07-29 05:08:00,63.9,59.5,29.95,West,270,1.0,3.0,86,0.00,,,0.00,meteohub,2013-07-29 12:08:00,
2013-07-29 05:14:00,63.9,59.9,29.95,West,270,2.0,3.0,87,0.00,,,0.00,meteohub,2013-07-29 12:14:00,
2013-07-29 05:19:00,63.7,59.4,29.95,West,270,2.0,2.0,86,0.00,,,0.00,meteohub,2013-07-29 12:19:00,
2013-07-29 05:24:00,63.7,59.4,29.95,West,270,1.0,2.0,86,0.00,,,0.00,meteohub,2013-07-29 12:24:00,
2013-07-29 05:29:00,63.7,59.4,29.95,West,270,0.0,2.0,86,0.00,,,0.00,meteohub,2013-07-29 12:29:00,
2013-07-29 05:34:00,63.7,59.4,29.95,NNE,23,3.0,3.0,86,0.00,,,0.00,meteohub,2013-07-29 12:34:00,
2013-07-29 05:40:00,63.7,59.4,29.95,NW,315,2.0,4.0,86,0.00,,,0.00,meteohub,2013-07-29 12:40:00,
2013-07-29 05:45:00,63.5,58.8,29.96,NW,315,0.0,4.0,85,0.00,,,0.00,meteohub,2013-07-29 12:45:00,
2013-07-29 05:50:00,63.5,59.2,29.96,NW,315,0.0,4.0,86,0.00,,,0.00,meteohub,2013-07-29 12:50:00,
2013-07-29 05:56:00,63.5,59.2,29.96,NW,315,3.0,4.0,86,0.00,,,0.00,meteohub,2013-07-29 12:56:00,
2013-07-29 06:01:00,63.5,59.2,29.96,NW,315,2.0,4.0,86,0.00,,,0.00,meteohub,2013-07-29 13:01:00,
2013-07-29 06:06:00,63.7,59.4,29.96,NW,315,2.0,4.0,86,0.00,,,0.00,meteohub,2013-07-29 13:06:00,
2013-07-29 06:11:00,63.7,59.4,29.96,NW,315,0.0,4.0,86,0.00,,,0.00,meteohub,2013-07-29 13:11:00,
2013-07-29 06:16:00,63.5,59.2,29.96,NW,315,0.0,2.0,86,0.00,,,0.00,meteohub,2013-07-29 13:16:00,
2013-07-29 06:21:00,63.5,59.2,29.96,NW,315,0.0,2.0,86,0.00,,,0.00,meteohub,2013-07-29 13:21:00,
2013-07-29 06:26:00,63.5,59.2,29.96,NW,315,0.0,2.0,86,0.00,,,0.00,meteohub,2013-07-29 13:26:00,
2013-07-29 06:32:00,63.5,58.8,29.96,NW,315,0.0,2.0,85,0.00,,,0.00,meteohub,2013-07-29 13:32:00,
2013-07-29 06:37:00,63.7,59.4,29.96,NW,315,1.0,2.0,86,0.00,,,0.00,meteohub,2013-07-29 13:37:00,
2013-07-29 06:42:00,63.9,59.2,29.97,NW,315,2.0,2.0,85,0.00,,,0.00,meteohub,2013-07-29 13:42:00,
2013-07-29 06:47:00,64.0,59.4,29.97,NW,315,0.0,2.0,85,0.00,,,0.00,meteohub,2013-07-29 13:47:00,
2013-07-29 06:52:00,64.6,59.9,29.97,NW,315,0.0,2.0,85,0.00,,,0.00,meteohub,2013-07-29 13:52:00,
2013-07-29 06:57:00,65.1,60.1,29.97,NW,315,0.0,2.0,84,0.00,,,0.00,meteohub,2013-07-29 13:57:00,
2013-07-29 07:03:00,65.8,60.6,29.98,NW,315,1.0,1.0,83,0.00,,,0.00,meteohub,2013-07-29 14:03:00,
2013-07-29 07:08:00,66.2,59.9,29.97,NW,315,2.0,2.0,80,0.00,,,0.00,meteohub,2013-07-29 14:08:00,
2013-07-29 07:13:00,67.1,60.4,29.98,NW,315,2.0,2.0,79,0.00,,,0.00,meteohub,2013-07-29 14:13:00,
2013-07-29 07:18:00,68.2,61.0,29.98,NW,315,2.0,2.0,78,0.00,,,0.00,meteohub,2013-07-29 14:18:00,
2013-07-29 07:23:00,70.2,60.6,29.98,North,0,3.0,3.0,72,0.00,,,0.00,meteohub,2013-07-29 14:23:00,
2013-07-29 07:28:00,71.6,61.7,29.98,SE,135,2.0,3.0,71,0.00,,,0.00,meteohub,2013-07-29 14:28:00,
2013-07-29 07:33:00,73.2,61.2,29.98,SE,135,3.0,3.0,66,0.00,,,0.00,meteohub,2013-07-29 14:33:00,
2013-07-29 07:38:00,74.1,60.8,29.98,South,180,4.0,4.0,63,0.00,,,0.00,meteohub,2013-07-29 14:38:00,
2013-07-29 07:44:00,74.3,59.9,29.98,SSE,158,3.0,4.0,61,0.00,,,0.00,meteohub,2013-07-29 14:44:00,
2013-07-29 07:49:00,75.2,60.8,29.98,SSE,158,2.0,4.0,61,0.00,,,0.00,meteohub,2013-07-29 14:49:00,
2013-07-29 07:54:00,75.9,60.1,29.99,SSW,203,2.0,4.0,58,0.00,,,0.00,meteohub,2013-07-29 14:54:00,
2013-07-29 07:59:00,75.9,60.1,29.99,West,270,2.0,4.0,58,0.00,,,0.00,meteohub,2013-07-29 14:59:00,
2013-07-29 08:04:00,76.3,60.4,29.99,West,270,2.0,4.0,58,0.00,,,0.00,meteohub,2013-07-29 15:04:00,
2013-07-29 08:10:00,77.0,60.1,29.99,South,180,2.0,4.0,56,0.00,,,0.00,meteohub,2013-07-29 15:10:00,
2013-07-29 08:15:00,77.7,61.3,29.99,SE,135,2.0,3.0,57,0.00,,,0.00,meteohub,2013-07-29 15:15:00,
2013-07-29 08:20:00,77.9,60.4,29.99,SW,225,2.0,4.0,55,0.00,,,0.00,meteohub,2013-07-29 15:20:00,
2013-07-29 08:25:00,77.9,59.9,29.99,West,270,4.0,4.0,54,0.00,,,0.00,meteohub,2013-07-29 15:25:00,
2013-07-29 08:30:00,75.9,60.1,30.00,WNW,293,2.0,6.0,58,0.00,,,0.00,meteohub,2013-07-29 15:30:00,
2013-07-29 08:36:00,74.5,58.8,29.99,West,270,4.0,6.0,58,0.00,,,0.00,meteohub,2013-07-29 15:36:00,
2013-07-29 08:41:00,75.0,60.3,30.00,West,270,2.0,6.0,60,0.00,,,0.00,meteohub,2013-07-29 15:41:00,
2013-07-29 08:46:00,77.2,60.3,30.00,South,180,2.0,5.0,56,0.00,,,0.00,meteohub,2013-07-29 15:46:00,
2013-07-29 08:51:00,78.6,60.1,30.00,NW,315,3.0,4.0,53,0.00,,,0.00,meteohub,2013-07-29 15:51:00,
2013-07-29 08:56:00,79.5,60.4,30.00,South,180,3.0,4.0,52,0.00,,,0.00,meteohub,2013-07-29 15:56:00,
2013-07-29 09:02:00,79.3,59.0,30.00,West,270,6.0,6.0,50,0.00,,,0.00,meteohub,2013-07-29 16:02:00,
2013-07-29 09:07:00,77.7,58.6,30.00,NW,315,2.0,6.0,52,0.00,,,0.00,meteohub,2013-07-29 16:07:00,
2013-07-29 09:12:00,77.5,59.5,30.00,West,270,4.0,6.0,54,0.00,,,0.00,meteohub,2013-07-29 16:12:00,
2013-07-29 09:17:00,76.3,59.4,30.00,SSE,158,3.0,6.0,56,0.00,,,0.00,meteohub,2013-07-29 16:17:00,
2013-07-29 09:22:00,78.1,60.6,30.01,West,270,5.0,5.0,55,0.00,,,0.00,meteohub,2013-07-29 16:22:00,
2013-07-29 09:27:00,77.4,59.9,30.01,NW,315,5.0,5.0,55,0.00,,,0.00,meteohub,2013-07-29 16:27:00,
2013-07-29 09:33:00,75.4,60.4,30.01,WNW,293,4.0,8.0,60,0.00,,,0.00,meteohub,2013-07-29 16:33:00,
2013-07-29 09:38:00,74.5,60.6,30.01,NW,315,5.0,8.0,62,0.00,,,0.00,meteohub,2013-07-29 16:38:00,
2013-07-29 09:41:00,73.4,60.1,30.01,NW,315,10.0,10.0,63,0.00,,,0.00,meteohub,2013-07-29 16:41:00,
2013-07-29 09:47:00,72.9,60.4,30.01,WNW,293,9.0,10.0,65,0.00,,,0.00,meteohub,2013-07-29 16:47:00,
2013-07-29 09:57:00,73.9,60.6,30.01,NW,315,9.0,10.0,63,0.00,,,0.00,meteohub,2013-07-29 16:57:00,
2013-07-29 10:02:00,73.6,61.5,30.01,SW,225,1.0,10.0,66,0.00,,,0.00,meteohub,2013-07-29 17:02:00,
2013-07-29 10:07:00,74.7,59.9,30.01,NW,315,8.0,9.0,60,0.00,,,0.00,meteohub,2013-07-29 17:07:00,
2013-07-29 10:12:00,73.9,60.1,30.01,NW,315,4.0,9.0,62,0.00,,,0.00,meteohub,2013-07-29 17:12:00,
2013-07-29 10:17:00,73.8,60.4,30.01,West,270,4.0,8.0,63,0.00,,,0.00,meteohub,2013-07-29 17:17:00,
2013-07-29 10:22:00,74.5,60.1,30.01,NW,315,12.0,12.0,61,0.00,,,0.00,meteohub,2013-07-29 17:22:00,
2013-07-29 10:27:00,74.1,60.8,30.01,NNE,23,4.0,12.0,63,0.00,,,0.00,meteohub,2013-07-29 17:27:00,
2013-07-29 10:32:00,74.5,60.6,30.02,West,270,4.0,12.0,62,0.00,,,0.00,meteohub,2013-07-29 17:32:00,
2013-07-29 10:37:00,74.3,60.4,30.01,NW,315,9.0,12.0,62,0.00,,,0.00,meteohub,2013-07-29 17:37:00,
2013-07-29 10:43:00,73.6,60.6,30.01,West,270,8.0,11.0,64,0.00,,,0.00,meteohub,2013-07-29 17:43:00,
2013-07-29 10:48:00,74.3,61.3,30.02,West,270,4.0,11.0,64,0.00,,,0.00,meteohub,2013-07-29 17:48:00,
2013-07-29 10:53:00,73.8,60.4,30.02,North,0,8.0,11.0,63,0.00,,,0.00,meteohub,2013-07-29 17:53:00,
2013-07-29 10:58:00,73.9,60.6,30.02,West,270,6.0,11.0,63,0.00,,,0.00,meteohub,2013-07-29 17:58:00,
2013-07-29 11:03:00,73.6,61.2,30.02,NW,315,9.0,11.0,65,0.00,,,0.00,meteohub,2013-07-29 18:03:00,
2013-07-29 11:09:00,73.9,61.3,30.02,NNW,338,7.0,11.0,65,0.00,,,0.00,meteohub,2013-07-29 18:09:00,
2013-07-29 11:14:00,74.1,60.3,30.02,WNW,293,11.0,11.0,62,0.00,,,0.00,meteohub,2013-07-29 18:14:00,
2013-07-29 11:19:00,74.3,60.8,30.02,West,270,4.0,11.0,63,0.00,,,0.00,meteohub,2013-07-29 18:19:00,
2013-07-29 11:24:00,73.8,60.4,30.02,NW,315,11.0,11.0,63,0.00,,,0.00,meteohub,2013-07-29 18:24:00,
2013-07-29 11:30:00,72.5,61.0,30.02,WNW,293,10.0,11.0,67,0.00,,,0.00,meteohub,2013-07-29 18:30:00,
2013-07-29 11:35:00,73.8,61.3,30.02,NW,315,6.0,11.0,65,0.00,,,0.00,meteohub,2013-07-29 18:35:00,
2013-07-29 11:40:00,73.6,61.2,30.02,NW,315,11.0,11.0,65,0.00,,,0.00,meteohub,2013-07-29 18:40:00,
2013-07-29 11:46:00,72.7,60.6,30.02,West,270,8.0,11.0,66,0.00,,,0.00,meteohub,2013-07-29 18:46:00,
2013-07-29 11:51:00,73.4,61.3,30.02,WNW,293,6.0,11.0,66,0.00,,,0.00,meteohub,2013-07-29 18:51:00,
2013-07-29 11:56:00,73.2,60.8,30.03,NW,315,8.0,11.0,65,0.00,,,0.00,meteohub,2013-07-29 18:56:00,
2013-07-29 12:02:00,73.6,61.2,30.02,NW,315,7.0,10.0,65,0.00,,,0.00,meteohub,2013-07-29 19:02:00,
2013-07-29 12:07:00,73.6,61.2,30.02,WNW,293,8.0,10.0,65,0.00,,,0.00,meteohub,2013-07-29 19:07:00,
2013-07-29 12:12:00,74.1,60.8,30.02,South,180,4.0,10.0,63,0.00,,,0.00,meteohub,2013-07-29 19:12:00,
2013-07-29 12:17:00,73.6,60.6,30.03,NW,315,5.0,14.0,64,0.00,,,0.00,meteohub,2013-07-29 19:17:00,
2013-07-29 12:22:00,73.6,61.5,30.03,NW,315,4.0,14.0,66,0.00,,,0.00,meteohub,2013-07-29 19:22:00,
2013-07-29 12:27:00,73.8,60.8,30.03,West,270,4.0,14.0,64,0.00,,,0.00,meteohub,2013-07-29 19:27:00,
2013-07-29 12:32:00,73.0,60.6,30.02,NW,315,10.0,12.0,65,0.00,,,0.00,meteohub,2013-07-29 19:32:00,
2013-07-29 12:37:00,73.2,61.5,30.02,NW,315,8.0,10.0,67,0.00,,,0.00,meteohub,2013-07-29 19:37:00,
2013-07-29 12:42:00,73.0,61.0,30.02,West,270,10.0,10.0,66,0.00,,,0.00,meteohub,2013-07-29 19:42:00,
2013-07-29 12:47:00,72.5,61.3,30.02,North,0,4.0,11.0,68,0.00,,,0.00,meteohub,2013-07-29 19:47:00,
2013-07-29 12:52:00,74.1,61.2,30.02,West,270,9.0,11.0,64,0.00,,,0.00,meteohub,2013-07-29 19:52:00,
2013-07-29 12:58:00,74.5,61.5,30.02,NW,315,3.0,11.0,64,0.00,,,0.00,meteohub,2013-07-29 19:58:00,
2013-07-29 13:03:00,75.4,61.5,30.02,West,270,7.0,11.0,62,0.00,,,0.00,meteohub,2013-07-29 20:03:00,
2013-07-29 13:08:00,75.2,60.8,30.02,NW,315,11.0,11.0,61,0.00,,,0.00,meteohub,2013-07-29 20:08:00,
2013-07-29 13:13:00,74.3,61.7,30.02,NW,315,7.0,11.0,65,0.00,,,0.00,meteohub,2013-07-29 20:13:00,
2013-07-29 13:18:00,74.7,60.8,30.02,West,270,11.0,11.0,62,0.00,,,0.00,meteohub,2013-07-29 20:18:00,
2013-07-29 13:23:00,75.4,61.5,30.02,WNW,293,12.0,12.0,62,0.00,,,0.00,meteohub,2013-07-29 20:23:00,
2013-07-29 13:28:00,75.4,61.0,30.02,NW,315,10.0,12.0,61,0.00,,,0.00,meteohub,2013-07-29 20:28:00,
2013-07-29 13:33:00,75.0,61.2,30.02,NW,315,9.0,12.0,62,0.00,,,0.00,meteohub,2013-07-29 20:33:00,
2013-07-29 13:38:00,74.5,61.0,30.02,WNW,293,10.0,12.0,63,0.00,,,0.00,meteohub,2013-07-29 20:38:00,
2013-07-29 13:44:00,74.1,61.5,30.01,SW,225,6.0,13.0,65,0.00,,,0.00,meteohub,2013-07-29 20:44:00,
2013-07-29 13:49:00,74.8,61.0,30.01,West,270,8.0,13.0,62,0.00,,,0.00,meteohub,2013-07-29 20:49:00,
2013-07-29 13:54:00,74.8,61.3,30.01,West,270,9.0,13.0,63,0.00,,,0.00,meteohub,2013-07-29 20:54:00,
2013-07-29 13:59:00,75.6,61.7,30.01,West,270,9.0,10.0,62,0.00,,,0.00,meteohub,2013-07-29 20:59:00,
2013-07-29 14:04:00,75.4,61.5,30.01,West,270,9.0,10.0,62,0.00,,,0.00,meteohub,2013-07-29 21:04:00,
2013-07-29 14:09:00,75.2,60.8,30.01,NNW,338,10.0,12.0,61,0.00,,,0.00,meteohub,2013-07-29 21:09:00,
2013-07-29 14:14:00,75.4,61.9,30.01,West,270,8.0,12.0,63,0.00,,,0.00,meteohub,2013-07-29 21:14:00,
2013-07-29 14:19:00,75.7,61.3,30.01,WNW,293,14.0,14.0,61,0.00,,,0.00,meteohub,2013-07-29 21:19:00,
2013-07-29 14:24:00,75.4,61.0,30.01,NW,315,8.0,14.0,61,0.00,,,0.00,meteohub,2013-07-29 21:24:00,
2013-07-29 14:29:00,75.2,61.3,30.01,NW,315,8.0,15.0,62,0.00,,,0.00,meteohub,2013-07-29 21:29:00,
2013-07-29 14:35:00,75.2,61.3,30.01,West,270,7.0,15.0,62,0.00,,,0.00,meteohub,2013-07-29 21:35:00,
2013-07-29 14:40:00,75.6,61.2,30.00,NW,315,8.0,15.0,61,0.00,,,0.00,meteohub,2013-07-29 21:40:00,
2013-07-29 14:45:00,74.7,60.8,30.01,West,270,11.0,11.0,62,0.00,,,0.00,meteohub,2013-07-29 21:45:00,
2013-07-29 14:48:00,74.7,61.7,30.00,NW,315,9.0,10.0,64,0.00,,,0.00,meteohub,2013-07-29 21:48:00,
2013-07-29 14:52:00,74.8,61.3,30.00,NW,315,4.0,11.0,63,0.00,,,0.00,meteohub,2013-07-29 21:52:00,
2013-07-29 15:02:00,74.5,61.5,30.00,NW,315,5.0,13.0,64,0.00,,,0.00,meteohub,2013-07-29 22:02:00,
2013-07-29 15:07:00,74.7,61.2,30.00,West,270,8.0,13.0,63,0.00,,,0.00,meteohub,2013-07-29 22:07:00,
2013-07-29 15:13:00,74.8,61.9,29.99,West,270,8.0,12.0,64,0.00,,,0.00,meteohub,2013-07-29 22:13:00,
2013-07-29 15:18:00,73.9,61.9,29.99,WNW,293,12.0,13.0,66,0.00,,,0.00,meteohub,2013-07-29 22:18:00,
2013-07-29 15:23:00,74.3,62.2,30.00,NW,315,11.0,14.0,66,0.00,,,0.00,meteohub,2013-07-29 22:23:00,
2013-07-29 15:28:00,73.9,61.9,29.99,NW,315,8.0,14.0,66,0.00,,,0.00,meteohub,2013-07-29 22:28:00,
2013-07-29 15:33:00,73.6,61.9,30.00,West,270,14.0,14.0,67,0.00,,,0.00,meteohub,2013-07-29 22:33:00,
2013-07-29 15:38:00,73.8,61.7,29.99,NW,315,12.0,14.0,66,0.00,,,0.00,meteohub,2013-07-29 22:38:00,
2013-07-29 15:43:00,73.8,61.7,29.99,NW,315,10.0,14.0,66,0.00,,,0.00,meteohub,2013-07-29 22:43:00,
2013-07-29 15:48:00,73.8,61.7,29.99,West,270,12.0,14.0,66,0.00,,,0.00,meteohub,2013-07-29 22:48:00,
2013-07-29 15:53:00,73.2,61.5,29.99,West,270,9.0,12.0,67,0.00,,,0.00,meteohub,2013-07-29 22:53:00,
2013-07-29 15:59:00,73.2,61.5,29.99,West,270,11.0,13.0,67,0.00,,,0.00,meteohub,2013-07-29 22:59:00,
2013-07-29 16:04:00,72.9,61.3,29.99,West,270,11.0,13.0,67,0.00,,,0.00,meteohub,2013-07-29 23:04:00,
2013-07-29 16:10:00,73.2,62.1,29.99,West,270,11.0,13.0,68,0.00,,,0.00,meteohub,2013-07-29 23:10:00,
2013-07-29 16:15:00,73.0,61.5,29.99,West,270,8.0,13.0,67,0.00,,,0.00,meteohub,2013-07-29 23:15:00,
2013-07-29 16:20:00,73.0,61.0,29.99,WNW,293,11.0,13.0,66,0.00,,,0.00,meteohub,2013-07-29 23:20:00,
2013-07-29 16:25:00,72.7,61.5,29.99,NW,315,13.0,13.0,68,0.00,,,0.00,meteohub,2013-07-29 23:25:00,
2013-07-29 16:31:00,72.1,61.3,29.98,West,270,14.0,15.0,69,0.00,,,0.00,meteohub,2013-07-29 23:31:00,
2013-07-29 16:36:00,72.3,61.2,29.99,WNW,293,11.0,15.0,68,0.00,,,0.00,meteohub,2013-07-29 23:36:00,
2013-07-29 16:41:00,72.5,61.3,29.98,NW,315,11.0,15.0,68,0.00,,,0.00,meteohub,2013-07-29 23:41:00,
2013-07-29 16:47:00,72.5,61.3,29.99,NW,315,8.0,14.0,68,0.00,,,0.00,meteohub,2013-07-29 23:47:00,
2013-07-29 16:52:00,72.9,60.8,29.98,West,270,7.0,14.0,66,0.00,,,0.00,meteohub,2013-07-29 23:52:00,
2013-07-29 16:57:00,73.4,60.4,29.99,WNW,293,10.0,14.0,64,0.00,,,0.00,meteohub,2013-07-29 23:57:00,
2013-07-29 17:03:00,73.2,61.2,29.98,NW,315,6.0,12.0,66,0.00,,,0.00,meteohub,2013-07-30 00:03:00,
2013-07-29 17:08:00,72.9,60.8,29.98,NW,315,9.0,15.0,66,0.00,,,0.00,meteohub,2013-07-30 00:08:00,
2013-07-29 17:13:00,72.7,60.6,29.98,NW,315,8.0,15.0,66,0.00,,,0.00,meteohub,2013-07-30 00:13:00,
2013-07-29 17:18:00,73.2,60.8,29.98,NW,315,11.0,15.0,65,0.00,,,0.00,meteohub,2013-07-30 00:18:00,
2013-07-29 17:24:00,72.9,60.4,29.98,NW,315,8.0,14.0,65,0.00,,,0.00,meteohub,2013-07-30 00:24:00,
2013-07-29 17:29:00,72.7,60.6,29.97,NW,315,9.0,12.0,66,0.00,,,0.00,meteohub,2013-07-30 00:29:00,
2013-07-29 17:34:00,72.7,60.6,29.97,West,270,8.0,12.0,66,0.00,,,0.00,meteohub,2013-07-30 00:34:00,
2013-07-29 17:39:00,73.2,60.8,29.97,West,270,11.0,12.0,65,0.00,,,0.00,meteohub,2013-07-30 00:39:00,
2013-07-29 17:44:00,72.3,60.8,29.97,NW,315,10.0,12.0,67,0.00,,,0.00,meteohub,2013-07-30 00:44:00,
2013-07-29 17:49:00,72.3,61.2,29.97,West,270,11.0,11.0,68,0.00,,,0.00,meteohub,2013-07-30 00:49:00,
2013-07-29 17:54:00,72.5,61.0,29.97,NW,315,10.0,11.0,67,0.00,,,0.00,meteohub,2013-07-30 00:54:00,
2013-07-29 17:59:00,72.7,61.5,29.97,West,270,8.0,11.0,68,0.00,,,0.00,meteohub,2013-07-30 00:59:00,
2013-07-29 18:04:00,72.5,61.0,29.96,West,270,10.0,11.0,67,0.00,,,0.00,meteohub,2013-07-30 01:04:00,
2013-07-29 18:09:00,73.0,61.5,29.97,West,270,6.0,11.0,67,0.00,,,0.00,meteohub,2013-07-30 01:09:00,
2013-07-29 18:17:00,72.9,61.3,29.97,WNW,293,7.0,11.0,67,0.00,,,0.00,meteohub,2013-07-30 01:17:00,
2013-07-29 18:22:00,72.9,61.3,29.96,West,270,8.0,11.0,67,0.00,,,0.00,meteohub,2013-07-30 01:22:00,
2013-07-29 18:27:00,72.9,61.7,29.97,NW,315,7.0,11.0,68,0.00,,,0.00,meteohub,2013-07-30 01:27:00,
2013-07-29 18:32:00,73.0,61.5,29.97,NW,315,5.0,11.0,67,0.00,,,0.00,meteohub,2013-07-30 01:32:00,
2013-07-29 18:37:00,73.2,61.5,29.97,NW,315,8.0,11.0,67,0.00,,,0.00,meteohub,2013-07-30 01:37:00,
2013-07-29 18:42:00,73.9,61.9,29.97,North,0,3.0,11.0,66,0.00,,,0.00,meteohub,2013-07-30 01:42:00,
2013-07-29 18:47:00,74.7,61.2,29.97,NE,45,4.0,11.0,63,0.00,,,0.00,meteohub,2013-07-30 01:47:00,
2013-07-29 18:52:00,74.8,60.4,29.97,North,0,4.0,8.0,61,0.00,,,0.00,meteohub,2013-07-30 01:52:00,
2013-07-29 18:57:00,74.3,60.4,29.97,North,0,4.0,6.0,62,0.00,,,0.00,meteohub,2013-07-30 01:57:00,
2013-07-29 19:02:00,73.9,60.6,29.98,WNW,293,4.0,6.0,63,0.00,,,0.00,meteohub,2013-07-30 02:02:00,
2013-07-29 19:07:00,73.6,60.6,29.98,North,0,3.0,6.0,64,0.00,,,0.00,meteohub,2013-07-30 02:07:00,
2013-07-29 19:12:00,73.6,60.6,29.98,North,0,4.0,7.0,64,0.00,,,0.00,meteohub,2013-07-30 02:12:00,
2013-07-29 19:17:00,73.2,60.8,29.98,North,0,3.0,7.0,65,0.00,,,0.00,meteohub,2013-07-30 02:17:00,
2013-07-29 19:22:00,72.5,60.4,29.98,North,0,8.0,8.0,66,0.00,,,0.00,meteohub,2013-07-30 02:22:00,
2013-07-29 19:28:00,72.0,60.4,29.99,NW,315,4.0,8.0,67,0.00,,,0.00,meteohub,2013-07-30 02:28:00,
2013-07-29 19:33:00,71.4,60.3,29.99,North,0,3.0,8.0,68,0.00,,,0.00,meteohub,2013-07-30 02:33:00,
2013-07-29 19:38:00,70.5,59.9,29.99,North,0,3.0,8.0,69,0.00,,,0.00,meteohub,2013-07-30 02:38:00,
2013-07-29 19:44:00,69.8,59.9,29.99,NW,315,5.0,6.0,71,0.00,,,0.00,meteohub,2013-07-30 02:44:00,
2013-07-29 19:49:00,69.3,59.9,29.99,North,0,2.0,5.0,72,0.00,,,0.00,meteohub,2013-07-30 02:49:00,
2013-07-29 19:54:00,68.9,60.3,29.99,NW,315,5.0,5.0,74,0.00,,,0.00,meteohub,2013-07-30 02:54:00,
2013-07-29 19:59:00,68.4,60.4,29.99,NW,315,2.0,5.0,76,0.00,,,0.00,meteohub,2013-07-30 02:59:00,
2013-07-29 20:04:00,68.0,60.4,30.00,NW,315,4.0,7.0,77,0.00,,,0.00,meteohub,2013-07-30 03:04:00,
2013-07-29 20:09:00,67.5,60.4,30.00,NNE,23,2.0,7.0,78,0.00,,,0.00,meteohub,2013-07-30 03:09:00,
2013-07-29 20:14:00,67.1,60.1,30.00,NNE,23,3.0,7.0,78,0.00,,,0.00,meteohub,2013-07-30 03:14:00,
2013-07-29 20:19:00,66.9,60.3,30.01,North,0,4.0,4.0,79,0.00,,,0.00,meteohub,2013-07-30 03:19:00,
2013-07-29 20:24:00,66.7,60.1,30.01,North,0,2.0,4.0,79,0.00,,,0.00,meteohub,2013-07-30 03:24:00,
2013-07-29 20:30:00,66.4,59.7,30.01,NNW,338,2.0,4.0,79,0.00,,,0.00,meteohub,2013-07-30 03:30:00,
2013-07-29 20:36:00,66.2,59.5,30.01,North,0,4.0,4.0,79,0.00,,,0.00,meteohub,2013-07-30 03:36:00,
2013-07-29 20:41:00,66.0,59.4,30.01,North,0,4.0,4.0,79,0.00,,,0.00,meteohub,2013-07-30 03:41:00,
2013-07-29 20:47:00,65.8,59.5,30.01,NNE,23,2.0,4.0,80,0.00,,,0.00,meteohub,2013-07-30 03:47:00,
2013-07-29 20:52:00,65.5,59.5,30.01,North,0,4.0,4.0,81,0.00,,,0.00,meteohub,2013-07-30 03:52:00,
2013-07-29 20:57:00,65.3,59.4,30.02,North,0,4.0,4.0,81,0.00,,,0.00,meteohub,2013-07-30 03:57:00,
2013-07-29 21:01:00,65.1,59.5,30.02,North,0,3.0,4.0,82,0.00,,,0.00,meteohub,2013-07-30 04:01:00,
2013-07-29 21:02:00,65.1,59.5,30.02,North,0,3.0,4.0,82,0.00,,,0.00,meteohub,2013-07-30 04:02:00,
2013-07-29 21:07:00,64.9,59.4,30.02,North,0,4.0,4.0,82,0.00,,,0.00,meteohub,2013-07-30 04:07:00,
2013-07-29 21:12:00,64.8,59.5,30.02,North,0,3.0,4.0,83,0.00,,,0.00,meteohub,2013-07-30 04:12:00,
2013-07-29 21:17:00,64.8,59.5,30.02,NE,45,3.0,4.0,83,0.00,,,0.00,meteohub,2013-07-30 04:17:00,
2013-07-29 21:22:00,64.6,59.4,30.03,NE,45,2.0,4.0,83,0.00,,,0.00,meteohub,2013-07-30 04:22:00,
2013-07-29 21:28:00,64.4,59.2,30.03,NE,45,2.0,4.0,83,0.00,,,0.00,meteohub,2013-07-30 04:28:00,
2013-07-29 21:33:00,64.4,59.5,30.03,NE,45,4.0,4.0,84,0.00,,,0.00,meteohub,2013-07-30 04:33:00,
2013-07-29 21:38:00,64.2,59.4,30.04,NE,45,2.0,4.0,84,0.00,,,0.00,meteohub,2013-07-30 04:38:00,
2013-07-29 21:43:00,64.2,59.4,30.04,NE,45,3.0,4.0,84,0.00,,,0.00,meteohub,2013-07-30 04:43:00,
2013-07-29 21:48:00,64.0,59.4,30.04,North,0,2.0,4.0,85,0.00,,,0.00,meteohub,2013-07-30 04:48:00,
2013-07-29 21:53:00,64.0,59.4,30.04,NE,45,3.0,4.0,85,0.00,,,0.00,meteohub,2013-07-30 04:53:00,
2013-07-29 21:58:00,63.9,59.2,30.04,NE,45,2.0,4.0,85,0.00,,,0.00,meteohub,2013-07-30 04:58:00,
2013-07-29 22:03:00,63.7,59.0,30.04,NE,45,2.0,4.0,85,0.00,,,0.00,meteohub,2013-07-30 05:03:00,
2013-07-29 22:08:00,63.5,59.2,30.04,NE,45,2.0,3.0,86,0.00,,,0.00,meteohub,2013-07-30 05:08:00,
2013-07-29 22:13:00,63.3,59.0,30.04,NE,45,2.0,2.0,86,0.00,,,0.00,meteohub,2013-07-30 05:13:00,
2013-07-29 22:18:00,63.3,59.0,30.04,NE,45,2.0,2.0,86,0.00,,,0.00,meteohub,2013-07-30 05:18:00,
2013-07-29 22:23:00,63.1,59.2,30.05,NE,45,2.0,2.0,87,0.00,,,0.00,meteohub,2013-07-30 05:23:00,
2013-07-29 22:28:00,63.1,59.2,30.05,NE,45,1.0,2.0,87,0.00,,,0.00,meteohub,2013-07-30 05:28:00,
2013-07-29 22:33:00,63.1,59.2,30.04,NE,45,1.0,2.0,87,0.00,,,0.00,meteohub,2013-07-30 05:33:00,
2013-07-29 22:38:00,62.8,58.8,30.05,NE,45,1.0,2.0,87,0.00,,,0.00,meteohub,2013-07-30 05:38:00,
2013-07-29 22:43:00,62.6,59.0,30.05,NE,45,0.0,2.0,88,0.00,,,0.00,meteohub,2013-07-30 05:43:00,
2013-07-29 22:48:00,62.8,59.5,30.05,NE,45,2.0,2.0,89,0.00,,,0.00,meteohub,2013-07-30 05:48:00,
2013-07-29 22:53:00,63.0,59.9,30.04,NE,45,2.0,2.0,90,0.00,,,0.00,meteohub,2013-07-30 05:53:00,
2013-07-29 22:58:00,63.0,59.9,30.04,NE,45,0.0,2.0,90,0.00,,,0.00,meteohub,2013-07-30 05:58:00,
2013-07-29 23:03:00,63.0,59.9,30.05,NE,45,0.0,2.0,90,0.00,,,0.00,meteohub,2013-07-30 06:03:00,
2013-07-29 23:08:00,62.8,59.7,30.05,NE,45,0.0,2.0,90,0.00,,,0.00,meteohub,2013-07-30 06:08:00,
2013-07-29 23:13:00,62.6,59.5,30.05,NE,45,0.0,1.0,90,0.00,,,0.00,meteohub,2013-07-30 06:13:00,
2013-07-29 23:18:00,62.4,59.4,30.04,NE,45,0.0,0.0,90,0.00,,,0.00,meteohub,2013-07-30 06:18:00,
2013-07-29 23:23:00,62.2,59.2,30.04,NE,45,0.0,0.0,90,0.00,,,0.00,meteohub,2013-07-30 06:23:00,
2013-07-29 23:28:00,62.1,59.4,30.05,NE,45,0.0,0.0,91,0.00,,,0.00,meteohub,2013-07-30 06:28:00,
2013-07-29 23:33:00,62.1,59.7,30.05,NE,45,2.0,0.0,92,0.00,,,0.00,meteohub,2013-07-30 06:33:00,
2013-07-29 23:38:00,62.1,59.7,30.05,NE,45,2.0,2.0,92,0.00,,,0.00,meteohub,2013-07-30 06:38:00,
2013-07-29 23:43:00,61.9,59.5,30.05,NE,45,2.0,2.0,92,0.00,,,0.00,meteohub,2013-07-30 06:43:00,
2013-07-29 23:48:00,61.9,59.5,30.05,NE,45,1.0,2.0,92,0.00,,,0.00,meteohub,2013-07-30 06:48:00,
2013-07-29 23:53:00,62.1,60.1,30.06,NE,45,2.0,2.0,93,0.00,,,0.00,meteohub,2013-07-30 06:53:00,
2013-07-29 23:58:00,62.2,60.3,30.06,NE,45,0.0,2.0,93,0.00,,,0.00,meteohub,2013-07-30 06:58:00,